{"data":{"norad_id":63090,"intl_designator":"2025-037P","name":"STARLINK-32903","alt_names":[],"object_type":"PAYLOAD","status":"ACTIVE","operator":null,"country":"US","launch_date":"2025-02-23","launch_site_code":"AFWTR","launch_vehicle":null,"mission":null,"orbit_class":"UNKNOWN","rcs_meters":null,"size_class":null,"mass_kg":null,"dimensions":null,"purposes":["comms"],"wikipedia_slug":null,"has_3d_model":false,"image_url":null,"decayed_at":null,"tle_current":{"epoch":"2026-05-25T02:36:50.434848Z","epoch_age_seconds":59585,"freshness":"FRESH","line1":"1 63090U 25037P   26145.10891707  .00003980  00000+0  34114-3 0  9991","line2":"2 63090  70.0002 161.5891 0003968 263.8172  96.2535 14.98335499 69915","mean_motion":14.98335499,"eccentricity":0.0003968,"inclination_deg":70.0002,"raan_deg":161.5891,"arg_perigee_deg":263.8172,"mean_anomaly_deg":96.2535,"bstar":0.00034114,"rev_number":6991,"period_min":96.106646406033,"perigee_km":569.28105600106,"apogee_km":574.79671558402,"semimajor_km":6950.1758857925,"source":"CELESTRAK","updated_at":"2026-05-25T13:38:19.879590Z"}}}